    2021 QF98                                                                       
    Epoch 2023 Feb. 25.0 TT = JDT 2460000.5                 Alexandersen            
    M  52.82512              (2000.0)            P               Q                  
    n   0.00498267     Peri.  250.94915     -0.67649709     +0.72500286             
    a  33.9490681      Node   334.97285     -0.50656956     -0.58555805             
    e   0.2951662      Incl.   17.79886     -0.53454558     -0.36261911             
    P 198              H    7.68          G   0.15           U   7                  
    Residuals in seconds of arc
    K218T  807  0.3-  0.1-    K21AA  304  0.1+  0.1+    K224T  304  0.0   0.0  
    K218T  807  0.2+  0.0     K21AB  304  0.0   0.0     K224U  304  0.0   0.1+ 
    K21A1  304  0.0   0.0     K2248  304  0.1+  0.0     K2292  304  0.1+  0.0  
    K21A5  304  0.0   0.0     K2249  304  0.0   0.0     K2293  304  0.1-  0.0  
    
    2021 QG98                                                                       
    Epoch 2023 Feb. 25.0 TT = JDT 2460000.5                 Alexandersen            
    M  64.33291              (2000.0)            P               Q                  
    n   0.00204051     Peri.   84.56808     -0.86504738     +0.38630764             
    a  61.5616024      Node   117.80480     -0.46364808     -0.85930037             
    e   0.4079291      Incl.   21.21534     +0.19163374     -0.33521528             
    P 483              H    5.77          G   0.15           U   8                  
    Residuals in seconds of arc
    K218V  807  0.1+  0.2-    K21AA  304  0.0   0.1+    K2292  304  0.1+  0.0  
    K218V  807  0.1-  0.2+    K21AC  304  0.0   0.0     K2293  304  0.1-  0.0  
    K21A1  304  0.0   0.0     K2248  304  0.0   0.1-    
    K21A5  304  0.1-  0.1-    K2249  304  0.0   0.1+    
    
    2021 QH98                                                                       
    Epoch 2023 Feb. 25.0 TT = JDT 2460000.5                 Alexandersen            
    M  46.45338              (2000.0)            P               Q                  
    n   0.00346570     Peri.  259.21754     -0.00566236     +0.99996518             
    a  43.2456223      Node    10.46386     -0.90377385     -0.00249392             
    e   0.0338257      Incl.    1.93426     -0.42797285     -0.00796365             
    P 284              H    6.65          G   0.15           U   8                  
    Residuals in seconds of arc
    K218T  807  0.1-  0.1-    K21A5  304  0.0   0.0     K229H  304  0.1-  0.1- 
    K218T  807  0.1+  0.2+    K2293  304  0.0   0.1-    K229I  304  0.0   0.2+ 
    K21A1  304  0.0   0.0     K2293  304  0.0   0.0     
    
    2021 QJ98                                                                       
    Epoch 2023 Feb. 25.0 TT = JDT 2460000.5                 Alexandersen            
    M  26.90194              (2000.0)            P               Q                  
    n   0.00099506     Peri.  255.33717     -0.66499355     +0.72379910             
    a  99.3659134      Node   330.29134     -0.45769529     -0.58975866             
    e   0.5823254      Incl.   21.80860     -0.59016828     -0.35818932             
    P 991              H    6.25          G   0.15           U   9                  
    Residuals in seconds of arc
    K218T  807  0.1-  0.1-    K2248  304  0.0   0.1-    K2292  304  0.0   0.0  
    K218T  807  0.1+  0.0     K2249  304  0.1+  0.0     K2293  304  0.0   0.1+ 
    K21A2  304  0.0   0.1-    K224T  304  0.1-  0.0     
    K21A6  304  0.0   0.3+    K224U  304  0.1+  0.0     
    
    
    M. P. C. Staff               (C) Copyright 2023 MPC           M.P.E.C. 2023-D53
    


    Read MPEC 2023-D52 Read MPEC 2023-D54


    MPEC number:

    Enter an MPEC number in one of the following forms:

    • 1997-B01 (the full form)
    • J97B01 (the packed version of the full form)
    • B01 (the abbreviated form)